Wetbulb
38.65 39.21 39.51 40.37 40.21 39.84 39.07 37.93 36.31 34.46 34.76 34.61 35.22 37.58 38.74 38.88 40.72 41.25 41.01 44.19 47.53 47.85 47.89 47.54 47.45 47.16 47.05 46.98 47.53 47.77 47.52 47.48 48.27 48.38 48.37 48.57 48.46 48.76
36.05 34.85 34.91 36.88 37.83 38.48 38.46 38.30 37.07 36.69 35.32 38.31 38.82 37.03 38.31 40.61 41.04 41.53 40.68 43.93 46.23 47.55 47.51 47.44 47.13 46.73 46.65 46.70 46.48 46.69 46.65 46.70 46.98 48.24 48.04 48.29 48.57 48.25
33.83 34.18 34.35 34.83 34.77 35.31 36.38 37.06 36.77 35.86 35.01 37.43 38.99 39.03 36.38 36.86 38.88 38.28 39.83 40.15 41.13 45.81 47.27 47.98 47.75 47.11 46.57 46.40 46.01 46.07 46.04 46.24 46.54 47.31 47.70 47.62 48.00 47.84
34.29 34.48 34.64 37.08 34.42 34.01 33.82 33.59 34.50 35.23 34.87 33.03 35.41 36.09 35.82 37.64 38.49 37.43 38.83 40.17 39.16 42.86 45.28 46.83 47.44 47.16 46.18 45.85 45.61 45.23 45.21 45.26 45.35 45.62 46.72 46.78 46.62 46.99
33.81 33.76 34.76 35.07 34.96 35.33 34.23 33.82 33.64 35.35 32.92 32.16 32.67 33.50 34.20 35.34 36.23 37.40 38.00 38.25 38.80 42.04 43.89 44.73 45.35 45.81 45.94 45.39 45.22 44.99 44.65 44.56 44.42 44.42 44.97 45.07 44.87 45.49
35.40 35.18 35.16 35.04 34.72 34.83 35.31 33.81 34.99 33.20 34.25 34.88 34.75 34.53 35.39 36.52 36.58 35.27 34.77 35.51 35.34 38.14 40.79 41.99 42.51 43.10 43.87 44.15 44.66 44.68 44.30 44.13 43.93 44.11 43.99 43.84 43.16 43.42
34.54 35.19 35.64 36.59 38.93 38.45 37.24 36.88 36.44 35.43 34.29 33.60 33.66 34.10 33.72 33.78 33.49 35.17 34.21 35.29 36.16 36.74 36.06 36.28 36.25 37.17 38.21 41.87 42.45 42.66 42.35 42.36 42.94 42.99 43.56 43.45 42.83 42.50
33.13 34.29 35.07 36.75 36.66 38.66 38.57 38.71 37.84 34.96 33.74 33.53 33.36 32.54 32.72 33.61 34.82 34.18 33.57 32.62 30.34 34.88 34.12 33.85 34.12 33.79 34.21 34.55 39.35 41.00 40.92 40.99 41.28 42.15 42.25 42.18 41.88 41.92
32.38 32.94 33.69 35.36 36.25 34.69 37.06 38.39 38.17 39.09 39.05 36.38 34.14 34.03 33.28 33.80 34.22 33.32 32.89 32.55 31.60 34.29 31.30 32.84 31.76 32.50 34.74 35.58 39.81 40.29 40.54 40.72 41.13 41.59 41.38 40.74 40.82 41.07
31.79 31.88 31.98 32.71 34.04 35.07 34.61 34.44 34.95 35.72 36.78 36.58 35.26 34.67 35.04 35.57 36.06 35.71 34.97 34.44 34.85 35.43 35.76 31.83 34.44 32.71 32.44 33.91 39.27 40.06 40.32 40.39 40.84 40.91 40.29 39.74 39.73 40.02
31.58 32.12 32.61 32.89 36.10 38.10 35.24 33.69 33.14 34.02 38.11 39.45 40.18 40.32 40.68 40.91 39.99 37.24 35.04 33.75 31.89 32.85 35.81 34.27 34.15 32.13 32.11 30.58 31.94 38.78 39.30 40.18 40.00 39.67 39.28 39.43 39.62 39.50
31.13 32.55 36.58 36.04 37.60 38.05 35.13 34.29 33.30 33.94 35.02 35.17 36.15 37.73 39.18 38.00 39.28 38.38 36.02 32.42 31.70 31.60 35.31 33.31 33.28 31.82 29.11 29.88 30.05 33.54 33.85 37.64 38.44 38.18 38.55 39.08 38.81 35.46
31.82 32.81 33.27 37.29 37.65 37.75 37.91 35.54 35.00 36.16 36.35 35.93 35.45 35.04 33.13 33.60 34.51 35.72 35.59 34.63 32.34 31.96 35.35 34.82 32.26 30.64 30.17 28.48 27.28 28.78 29.52 30.25 32.20 35.08 38.06 38.54 37.89 36.90
31.61 32.88 32.62 36.43 37.27 37.75 37.19 37.63 37.31 37.26 34.95 33.51 30.61 30.71 31.10 32.05 33.74 33.62 34.57 35.32 35.57 34.41 36.16 36.14 30.56 30.32 28.58 26.65 26.00 28.36 28.96 30.30 31.10 30.40 30.89 33.37 35.14 35.91
32.62 34.02 36.19 36.74 36.85 36.47 36.71 36.19 36.30 33.41 32.31 30.51 29.00 30.31 31.27 33.18 33.12 33.22 33.95 33.96 33.37 34.06 35.82 34.30 32.43 31.68 30.37 24.94 22.33 25.97 27.94 28.27 29.11 29.27 29.05 28.94 28.33 28.58
34.18 33.36 34.94 36.13 36.25 35.54 33.58 32.12 31.32 32.40 32.00 30.13 30.50 31.35 33.14 32.29 31.43 32.12 30.99 31.95 30.82 30.45 31.88 33.13 32.50 32.26 27.09 27.59 27.34 26.98 28.59 26.28 28.20 28.19 28.47 28.41 28.55 29.09
34.80 33.30 32.01 32.18 30.35 29.02 28.31 29.18 31.90 30.89 30.06 30.50 30.80 30.16 30.66 31.75 31.14 32.58 31.63 31.30 29.27 28.09 28.05 30.31 31.45 31.03 29.89 28.81 26.96 27.42 27.08 27.10 27.87 27.67 27.73 27.37 28.12 28.52
32.63 30.97 29.94 27.85 27.38 27.74 27.32 28.20 29.26 30.61 31.01 31.21 30.35 30.33 30.65 30.23 30.21 31.33 30.93 29.53 27.52 25.49 26.53 27.72 27.95 26.94 26.09 26.99 30.33 25.99 26.26 26.23 27.16 27.85 28.29 26.68 26.01 27.18
29.01 28.16 28.09 27.12 27.39 28.14 28.40 27.89 27.44 30.21 31.46 30.87 30.40 30.50 31.31 31.14 31.28 29.80 29.24 28.22 26.56 26.91 26.83 27.18 26.22 23.89 20.67 18.79 25.65 31.48 25.48 26.28 26.68 26.43 27.55 27.36 25.46 26.50
27.92 28.26 27.24 28.02 27.92 26.41 27.20 27.56 29.13 30.49 30.83 30.20 30.26 31.44 31.30 30.93 29.86 24.97 27.23 26.97 26.45 26.30 25.41 25.94 25.13 24.31 22.07 21.13 21.50 26.08 30.13 27.12 26.57 25.76 26.01 27.34 28.53 30.77
28.68 27.63 27.83 26.34 26.40 27.44 27.79 28.30 28.22 29.58 29.72 29.93 30.73 31.07 31.33 31.09 25.86 25.07 26.59 29.63 28.47 26.12 25.08 24.91 26.36 30.21 25.27 24.78 21.43 22.20 25.47 28.98 28.89 26.02 24.83 23.33 21.40 22.88
26.65 26.72 27.84 27.33 27.44 27.75 27.44 27.76 28.55 28.48 28.78 29.62 30.22 30.98 29.58 29.86 28.27 27.14 26.64 26.16 27.34 26.53 25.80 25.99 26.03 23.71 21.01 21.90 20.60 20.79 22.52 25.49 28.71 29.41 30.43 27.64 20.33 17.08
27.12 26.86 26.42 26.61 27.13 27.18 27.18 27.63 28.06 28.45 28.36 29.59 30.04 30.58 27.80 28.10 26.93 27.57 26.68 27.25 26.86 25.85 24.36 22.54 23.02 22.02 20.45 19.88 19.07 18.89 19.32 21.16 23.97 23.91 25.31 29.71 30.58 31.09
MSLP
1020.23 1020.00 1019.85 1019.57 1019.39 1019.22 1019.14 1019.21 1019.29 1018.56 1017.58 1016.83 1016.96 1016.37 1016.18 1016.10 1015.87 1015.60 1015.34 1015.06 1014.84 1014.76 1014.69 1014.63 1014.57 1014.65 1014.66 1014.54 1014.38 1014.36 1014.39 1014.42 1014.35 1014.26 1014.25 1014.16 1014.03 1013.90
1020.09 1019.92 1019.70 1019.35 1019.08 1018.87 1018.71 1018.57 1018.54 1018.40 1017.53 1016.79 1016.27 1016.15 1015.94 1015.70 1015.42 1015.15 1014.93 1014.63 1014.36 1014.21 1014.10 1014.00 1013.94 1013.96 1013.94 1013.93 1013.89 1013.80 1013.81 1013.84 1013.83 1013.64 1013.69 1013.63 1013.46 1013.41
1019.98 1019.79 1019.50 1019.22 1018.92 1018.58 1018.33 1018.13 1018.00 1017.82 1017.25 1016.42 1015.92 1015.62 1015.46 1015.17 1014.91 1014.67 1014.39 1014.16 1013.93 1013.64 1013.37 1013.20 1013.11 1013.13 1013.13 1013.16 1013.22 1013.16 1013.14 1013.13 1013.09 1013.04 1012.92 1013.00 1012.85 1012.80
1019.86 1019.70 1019.39 1018.96 1018.67 1018.30 1018.01 1017.82 1017.52 1017.20 1016.95 1016.18 1015.92 1015.62 1015.30 1014.84 1014.46 1014.13 1013.75 1013.32 1013.21 1013.01 1012.81 1012.57 1012.36 1012.25 1012.26 1012.29 1012.29 1012.38 1012.40 1012.42 1012.45 1012.48 1012.22 1012.23 1012.33 1012.24
1019.64 1019.43 1019.09 1018.73 1018.35 1017.82 1017.52 1017.21 1016.84 1016.48 1016.34 1015.99 1015.50 1015.42 1015.04 1014.68 1014.15 1013.70 1013.24 1012.81 1012.45 1012.20 1012.03 1011.82 1011.51 1011.42 1011.33 1011.30 1011.34 1011.38 1011.59 1011.70 1011.80 1011.80 1011.74 1011.71 1011.90 1011.85
1019.23 1018.96 1018.64 1018.30 1017.88 1017.46 1017.09 1016.72 1016.28 1016.08 1015.79 1015.31 1014.75 1014.51 1014.27 1013.89 1013.66 1013.25 1012.65 1012.23 1011.86 1011.52 1011.15 1010.96 1010.87 1010.70 1010.52 1010.44 1010.32 1010.28 1010.52 1010.79 1010.94 1010.98 1011.07 1011.02 1011.30 1011.42
1018.57 1018.40 1018.09 1017.75 1017.38 1017.02 1016.54 1016.07 1015.85 1015.61 1015.29 1014.88 1014.40 1013.98 1013.65 1013.35 1013.13 1012.62 1012.14 1011.73 1011.22 1011.04 1010.44 1010.22 1010.14 1009.95 1009.72 1009.45 1009.42 1009.55 1009.72 1009.95 1010.02 1010.21 1010.12 1010.20 1010.56 1010.73
1018.26 1017.79 1017.49 1017.19 1016.87 1016.49 1016.06 1015.67 1015.37 1014.90 1014.56 1014.23 1013.76 1013.38 1012.96 1012.62 1012.28 1011.98 1011.55 1011.20 1010.59 1010.57 1010.11 1009.60 1009.67 1009.19 1009.10 1009.01 1008.74 1008.81 1008.99 1009.23 1009.27 1009.30 1009.40 1009.62 1009.92 1010.01
1017.85 1017.49 1017.07 1016.61 1016.24 1015.83 1015.34 1014.85 1014.53 1014.26 1013.98 1013.51 1013.01 1012.68 1011.99 1011.84 1011.60 1011.23 1010.85 1010.43 1009.82 1009.45 1009.54 1008.88 1009.05 1008.54 1008.27 1008.05 1007.98 1008.06 1008.19 1008.36 1008.37 1008.49 1008.69 1009.00 1009.22 1009.37
1017.23 1016.97 1016.59 1016.18 1015.66 1015.17 1014.61 1014.11 1013.75 1013.35 1013.05 1012.75 1012.17 1011.50 1011.06 1010.77 1010.63 1010.23 1009.89 1009.38 1008.86 1008.51 1008.67 1007.79 1007.75 1007.61 1007.55 1007.41 1007.19 1007.18 1007.31 1007.56 1007.59 1007.63 1008.02 1008.42 1008.66 1008.81
1016.47 1016.10 1015.72 1015.33 1014.96 1014.47 1013.80 1013.27 1012.88 1012.28 1011.85 1011.45 1010.91 1010.36 1009.83 1009.35 1009.27 1009.05 1008.59 1008.38 1007.60 1007.36 1007.15 1007.03 1006.88 1007.01 1007.09 1006.90 1006.76 1006.53 1006.62 1006.85 1006.81 1007.13 1007.52 1007.76 1007.88 1008.18
1015.68 1015.12 1014.70 1014.19 1013.90 1013.55 1013.05 1012.62 1012.07 1011.45 1010.99 1010.42 1009.84 1009.29 1008.97 1008.52 1008.21 1008.00 1007.86 1007.41 1007.15 1006.38 1005.88 1006.20 1006.20 1006.62 1006.69 1006.35 1006.23 1006.29 1006.51 1006.51 1006.44 1006.83 1007.01 1007.13 1007.56 1007.66
1014.88 1014.30 1013.89 1013.56 1013.18 1012.74 1012.33 1011.82 1011.23 1010.45 1009.82 1009.42 1008.83 1008.56 1008.24 1007.69 1007.37 1007.11 1006.95 1006.74 1006.16 1005.52 1005.56 1005.44 1005.33 1005.66 1005.97 1006.31 1006.25 1006.19 1006.31 1006.53 1006.67 1006.76 1006.93 1007.12 1007.21 1007.36
1014.18 1013.70 1013.34 1012.94 1012.34 1011.78 1011.30 1010.84 1010.19 1009.53 1009.09 1008.57 1008.33 1007.94 1007.39 1006.96 1006.61 1006.40 1006.08 1005.76 1005.47 1004.87 1004.63 1004.67 1004.81 1004.93 1005.39 1005.98 1006.25 1006.24 1006.34 1006.51 1006.83 1006.94 1007.06 1006.99 1006.93 1007.09
1013.44 1012.85 1012.32 1011.94 1011.41 1010.82 1010.46 1009.86 1009.22 1008.70 1008.42 1008.06 1007.67 1007.14 1006.74 1006.06 1005.76 1005.47 1005.08 1004.78 1004.55 1004.23 1003.87 1003.88 1004.13 1004.47 1004.93 1005.39 1005.84 1006.09 1006.36 1006.43 1006.57 1006.81 1006.93 1006.96 1007.08 1007.21
1012.47 1011.78 1011.35 1011.03 1010.61 1010.15 1009.51 1009.19 1008.76 1008.21 1007.78 1007.37 1006.89 1006.40 1005.93 1005.35 1004.98 1004.73 1004.39 1004.12 1004.01 1003.88 1003.74 1003.66 1003.82 1004.19 1004.74 1005.08 1005.40 1005.86 1006.02 1006.34 1006.39 1006.54 1006.62 1006.70 1006.83 1006.89
1011.44 1011.02 1010.67 1010.35 1010.00 1009.56 1009.20 1008.69 1008.09 1007.59 1007.12 1006.60 1006.16 1005.69 1005.17 1004.58 1004.10 1003.85 1003.63 1003.60 1003.66 1003.72 1003.81 1003.88 1004.04 1004.27 1004.58 1004.92 1005.32 1005.55 1005.84 1006.04 1006.13 1006.23 1006.35 1006.40 1006.38 1006.41
1010.73 1010.45 1010.10 1009.77 1009.40 1008.85 1008.51 1007.92 1007.50 1006.81 1006.25 1005.85 1005.48 1005.00 1004.37 1003.89 1003.53 1003.23 1003.18 1003.30 1003.42 1003.62 1003.82 1004.01 1004.28 1004.68 1005.03 1005.17 1005.17 1005.38 1005.59 1005.71 1005.77 1005.83 1005.96 1005.98 1005.92 1005.88
1010.28 1009.99 1009.60 1009.18 1008.64 1008.28 1007.87 1007.36 1006.73 1006.05 1005.47 1005.21 1004.77 1004.24 1003.67 1003.29 1002.98 1002.78 1002.89 1003.11 1003.30 1003.52 1003.78 1004.07 1004.40 1004.74 1005.14 1005.35 1005.16 1004.93 1005.31 1005.42 1005.50 1005.52 1005.59 1005.58 1005.51 1005.37
1009.79 1009.29 1008.97 1008.55 1008.11 1007.74 1007.24 1006.69 1006.01 1005.39 1004.92 1004.51 1004.04 1003.47 1003.04 1002.80 1002.60 1002.63 1002.77 1002.95 1003.16 1003.43 1003.74 1004.02 1004.28 1004.59 1004.93 1005.20 1005.32 1005.15 1005.11 1005.23 1005.30 1005.33 1005.30 1005.20 1005.06 1004.80
1008.99 1008.81 1008.42 1008.03 1007.51 1007.09 1006.56 1006.00 1005.44 1004.80 1004.32 1003.84 1003.38 1002.95 1002.62 1002.43 1002.46 1002.52 1002.66 1002.75 1003.00 1003.34 1003.69 1003.98 1004.11 1004.32 1004.79 1005.17 1005.45 1005.44 1005.34 1005.23 1005.25 1005.21 1005.22 1005.21 1005.08 1004.73
1008.65 1008.20 1007.75 1007.40 1006.96 1006.48 1005.97 1005.39 1004.81 1004.27 1003.72 1003.30 1002.88 1002.56 1002.35 1002.21 1002.20 1002.39 1002.59 1002.81 1002.92 1003.26 1003.66 1003.98 1004.26 1004.66 1005.00 1005.24 1005.42 1005.53 1005.44 1005.25 1004.97 1004.83 1004.70 1004.82 1004.84 1004.78
1008.02 1007.66 1007.21 1006.76 1006.32 1005.83 1005.33 1004.79 1004.21 1003.65 1003.25 1002.84 1002.50 1002.24 1002.12 1002.17 1002.25 1002.39 1002.61 1002.83 1003.09 1003.41 1003.82 1004.28 1004.56 1004.85 1005.16 1005.41 1005.45 1005.53 1005.44 1005.24 1004.96 1004.65 1004.36 1003.99 1003.88 1003.90
Wind_Speed
5 5 4 4 4 4 4 4 5 11 12 3 3 2 5 4 7 6 6 13 19 19 19 19 18 18 18 19 19 19 18 18 19 17 17 17 16 16
4 6 4 3 5 4 4 4 4 7 12 9 8 4 4 5 7 7 8 17 19 21 22 21 20 20 20 20 21 21 20 20 19 20 18 19 17 16
5 6 7 6 5 4 4 4 4 4 9 9 7 6 4 6 7 6 6 8 9 22 25 24 22 21 22 21 21 21 21 21 21 22 20 19 19 17
6 6 7 7 8 6 4 6 5 5 5 12 6 5 6 7 9 8 8 7 7 16 24 27 25 23 22 22 22 22 22 22 22 22 22 20 19 19
6 6 9 8 9 7 6 6 5 5 4 5 8 4 4 4 9 8 9 9 6 13 21 25 27 26 24 23 23 23 22 23 22 22 23 21 20 21
6 6 8 9 10 8 7 6 5 4 5 8 9 11 9 6 7 9 8 5 6 6 12 17 17 20 23 25 25 22 20 21 23 23 23 22 21 21
6 7 8 10 18 16 9 9 9 8 9 9 9 8 8 8 9 8 9 9 10 7 8 7 7 9 11 20 19 18 17 20 21 23 25 23 21 22
8 9 9 13 12 17 19 20 17 11 11 9 9 10 11 10 9 8 9 9 11 6 9 10 6 8 8 7 16 21 18 21 23 22 21 22 21 21
7 8 9 8 15 10 15 20 17 21 21 15 13 12 14 11 11 12 12 11 12 9 4 11 4 9 8 9 20 19 18 21 20 21 19 18 20 20
7 8 9 11 10 14 12 11 11 11 12 11 13 13 13 12 13 13 14 14 13 11 9 12 8 10 6 7 18 18 18 19 20 18 16 17 19 18
7 8 9 10 14 21 14 12 12 11 14 22 23 26 27 29 24 13 11 10 9 12 8 10 9 5 5 5 5 15 15 20 18 14 15 19 18 19
7 9 17 14 20 22 15 13 14 14 15 15 14 15 17 16 24 14 10 11 11 12 8 7 8 5 3 3 3 5 5 13 12 13 16 19 12 2
7 8 6 16 20 24 24 14 15 17 17 13 10 9 9 10 8 10 9 10 11 10 7 6 5 4 3 2 1 2 3 1 1 2 8 12 12 9
9 8 7 20 24 26 22 24 28 24 11 8 7 9 10 9 8 8 10 9 10 13 8 9 3 5 4 2 3 2 1 2 2 2 4 8 10 13
8 14 25 25 26 19 20 25 26 10 9 8 9 10 10 9 9 9 9 9 8 8 8 8 4 5 4 3 3 2 3 2 3 3 3 3 3 3
13 12 15 21 24 17 16 11 9 9 8 9 8 8 9 7 8 7 8 5 4 1 0 4 6 6 2 2 3 2 3 3 2 3 2 2 3 4
18 11 9 8 7 8 6 10 8 8 8 8 8 8 9 8 8 7 6 4 4 2 2 2 3 4 3 4 2 3 3 3 4 3 3 4 4 4
11 10 9 8 10 9 8 10 8 12 8 8 7 8 8 8 8 5 3 3 2 2 2 2 2 2 2 2 4 2 2 3 3 4 4 4 4 3
8 9 9 9 10 7 9 7 11 10 8 7 8 9 7 7 8 4 3 2 1 2 2 3 3 2 2 2 1 10 4 2 2 4 3 4 4 3
7 10 7 10 5 9 8 9 10 7 6 7 8 8 6 6 4 2 2 2 2 2 2 2 2 2 3 3 2 0 3 2 1 1 2 1 3 10
8 6 10 7 9 8 9 8 9 8 8 7 7 6 5 4 2 2 3 6 5 2 3 3 3 7 3 3 1 1 1 6 6 3 1 1 2 2
8 10 8 8 8 9 8 9 9 7 7 6 6 5 4 3 3 3 3 2 2 2 2 2 3 3 2 2 1 1 1 2 3 9 9 9 3 2
8 8 8 9 8 8 9 8 8 7 6 6 5 4 2 1 1 2 2 2 3 2 2 2 2 2 1 1 2 2 2 2 2 3 3 11 13 19
Wind_Direction
296 283 275 266 259 251 238 218 234 289 294 294 281 273 336 319 281 265 249 242 247 250 255 261 259 261 266 270 269 268 269 268 271 263 268 266 265 272
306 318 305 287 285 273 255 248 226 250 274 287 279 259 259 279 279 269 248 243 247 249 254 257 257 261 262 263 265 263 263 265 263 263 261 265 262 265
320 319 305 297 286 287 282 268 257 238 270 280 285 287 259 264 273 267 254 247 248 251 253 257 260 262 267 267 265 262 260 261 260 264 254 258 264 260
313 311 301 309 297 281 272 269 255 261 273 287 288 294 280 280 272 269 265 257 239 245 256 261 260 262 266 266 263 261 262 259 260 261 258 257 261 260
301 300 300 300 297 296 276 274 263 277 270 280 289 261 262 281 293 287 276 267 254 252 259 262 264 262 261 261 265 261 259 259 258 257 260 253 259 261
281 280 292 297 296 301 299 277 278 273 276 287 294 298 293 280 269 285 284 259 263 253 252 251 251 260 263 267 268 262 248 252 257 259 260 252 252 255
277 276 282 285 296 299 303 305 306 301 294 292 292 293 295 293 284 287 284 283 278 269 261 249 242 249 256 262 258 251 253 265 258 260 256 251 249 250
284 289 285 290 288 299 301 300 290 288 283 275 275 279 282 278 275 274 275 277 282 241 260 267 237 243 241 237 239 246 244 253 261 255 254 251 251 248
273 279 285 289 291 271 274 286 287 284 283 283 280 274 280 276 279 280 271 264 266 268 234 268 238 252 243 240 237 236 247 250 246 245 246 250 249 245
260 267 269 278 277 291 280 273 268 269 273 269 266 269 266 267 264 268 266 265 267 264 251 262 255 249 238 225 232 241 242 256 255 253 235 243 247 241
253 253 264 268 279 296 292 287 282 272 267 268 272 279 282 279 277 278 272 265 271 272 245 246 255 245 226 227 221 228 241 238 243 241 248 250 245 246
258 257 264 279 288 298 296 293 289 286 286 279 280 282 279 273 280 270 276 269 268 276 246 222 242 208 229 220 214 223 225 248 234 238 254 242 247 166
279 282 272 291 296 296 294 292 286 287 287 288 281 284 276 278 264 262 252 257 263 257 258 212 211 179 175 158 215 165 150 155 317 329 252 233 233 223
289 288 285 291 292 295 299 297 300 300 292 282 280 285 286 280 268 267 265 259 255 258 255 226 206 168 155 152 173 194 186 171 208 230 217 242 254 258
284 282 296 298 294 298 296 297 301 289 285 275 278 282 287 271 273 275 264 258 260 260 256 202 183 162 169 158 165 165 149 210 174 207 214 214 211 218
286 287 292 292 297 287 295 296 287 280 271 269 271 272 286 269 273 266 270 251 234 216 26 205 167 159 126 133 133 161 156 177 183 209 216 226 227 220
303 299 292 291 288 288 277 291 275 273 270 268 274 274 283 277 270 271 241 231 212 179 155 114 104 107 96 137 173 177 182 213 217 219 212 246 227 224
297 292 285 292 289 283 280 294 278 291 281 269 274 277 280 281 278 263 215 208 177 151 139 112 109 85 56 357 207 194 215 233 219 224 228 238 248 233
293 292 280 293 285 278 292 288 289 284 280 278 275 278 278 274 281 235 200 175 153 146 136 139 146 128 131 200 310 219 211 206 228 235 243 238 241 240
274 285 282 293 295 297 290 286 294 301 279 282 281 280 271 274 264 190 173 161 146 129 118 133 143 151 167 186 198 354 286 199 225 279 282 269 260 274
286 285 291 282 290 288 285 285 286 279 292 290 287 283 272 272 204 171 176 192 166 128 151 167 192 193 110 105 84 290 295 280 275 241 250 264 274 294
300 288 282 286 288 286 289 283 289 294 280 285 284 281 269 236 183 163 163 149 136 131 122 118 107 106 98 155 203 258 287 275 296 310 267 218 171 272
288 291 287 285 282 280 282 284 283 282 280 282 278 268 208 183 150 131 130 128 127 121 115 117 108 97 135 171 210 229 250 273 276 293 274 265 256 244